Probability
0 0 0 0 0 0 0 0 0 0 0 0 0 0 0 0 0 0 0 0 0 0 0 0 0 0 0 0 0 0 0 0 0 0 0 0 0 0 0 0 0 0 0 0
0 0 0 0 0 0 0 0 0 0 0 0 0 0 0 0 0 0 0 0 0 0 0 0 0 0 0 0 0 0 0 0 0 0 0 0 0 0 0 0 0 0 0 0
0 0 0 0 0 0 0 0 0 0 0 0 0 0 0 0 0 0 0 0 0 0 0 0 0 0 0 0 0 0 0 0 0 0 0 0 0 0 0 0 0 0 0 0
0 0 0 0 0 0 0 0 0 0 0 0 0 0 0 0 0 0 0 0 0 0 0 0 0 0 0 0 0 0 0 0 0 0 0 0 0 0 0 0 0 0 0 0
0 0 0 0 0 0 0 0 0 0 0 0 0 0 0 0 0 0 0 0 0 0 0 0 0 0 0 0 0 0 0 0 0 0 0 0 0 0 0 0 0 0 0 0
0 0 0 0 0 0 0 0 0 0 0 0 0 0 0 0 0 0 0 0 0 0 0 0 0 0 0 0 0 0 0 0 0 0 0 0 0 0 0 0 0 0 0 0
0 0 0 0 0 0 0 0 0 0 0 0 0 0 0 0 0 0 0 0 0 0 0 0 0 0 0 0 0 0 0 0 0 0 0 0 0 0 0 0 0 0 0 0
0 0 0 0 0 0 0 0 0 0 0 0 0 0 0 0 0 0 0 0 0 0 0 0 0 0 0 0 0 0 0 0 0 0 0 0 0 0 0 0 0 0 0 0
0 0 0 0 0 0 0 0 0 0 0 0 0 0 0 0 0 0 0 0 0 0 0 0 0 0 0 0 0 0 0 0 0 0 0 0 0 0 0 0 0 0 0 0
0 0 0 0 0 0 0 0 0 0 0 0 0 0 0 0 0 0 0 0 0 0 0 0 0 0 0 0 0 0 0 0 0 0 0 0 0 0 0 0 0 0 0 0
0 0 0 0 0 0 0 0 0 0 0 0 0 0 0 0 0 0 0 0 0 0 0 0 0 0 0 0 0 0 0 0 0 0 0 0 0 0 0 0 0 0 0 0
0 0 0 0 0 0 0 0 0 0 0 0 0 0 0 0 0 0 0 0 0 0 0 0 0 0 0 0 0 0 0 0 0 0 0 0 0 0 0 0 0 0 0 0
0 0 0 0 0 0 0 0 0 0 0 0 0 0 0 0 0 0 0 0 0 0 0 0 0 0 0 0 0 0 0 0 0 0 0 0 0 0 0 0 0 0 0 0
0 0 0 0 0 0 0 0 0 0 0 0 0 0 0 0 0 0 0 0 0 0 0 0 0 0 0 0 0 0 0 0 0 0 0 0 0 0 0 0 0 0 0 0
0 0 0 0 0 0 0 0 0 0 0 0 0 0 0 0 0 0 0 0 0 0 0 0 0 0 0 0 0 0 0 0 0 0 0 0 0 0 0 0 0 0 0 0
0 0 0 0 0 0 0 0 0 0 0 0 0 0 0 0 0 0 0 0 0 0 0 0 0 0 0 0 0 0 0 0 0 0 0 0 0 0 0 0 0 0 0 0
0 0 0 0 0 0 0 0 0 0 0 0 0 0 0 0 0 0 0 0 0 0 0 0 0 0 0 0 0 0 0 0 0 0 0 0 0 0 0 0 0 0 0 0
0 0 0 0 0 0 0 0 0 0 0 0 0 0 0 0 0 0 0 0 0 0 0 0 0 0 0 0 0 0 0 0 0 0 0 0 0 0 0 0 0 0 0 0
0 0 0 0 0 0 0 0 0 0 0 0 0 0 0 0 0 0 0 0 0 0 0 0 0 0 0 0 0 0 0 0 0 0 0 0 0 0 0 0 0 0 0 0
0 0 0 0 0 0 0 0 0 0 0 0 0 0 0 0 0 0 0 0 0 0 0 0 0 0 0 0 0 0 0 0 0 0 0 0 0 0 0 0 0 0 0 0
0 0 0 0 0 0 0 0 0 0 0 0 0 0 0 0 0 0 0 0 0 0 0 0 0 0 0 0 0 0 0 0 0 0 0 0 0 0 0 0 0 0 0 0
0 0 0 0 0 0 0 0 0 0 0 0 0 0 0 0 0 0 0 0 0 0 0 0 0 0 0 0 0 0 0 0 0 0 0 0 0 0 0 0 0 0 0 0
0 0 0 0 0 0 0 0 0 0 0 0 0 0 0 0 0 0 0 0 0 0 0 0 0 0 0 0 0 0 0 0 0 0 0 0 0 0 0 0 0 0 0 0
0 0 0 0 0 0 0 0 0 0 0 0 0 0 0 0 0 0 0 0 0 0 0 0 0 0 0 0 0 0 0 0 0 0 0 0 0 0 0 0 0 0 0 0
0 0 0 0 0 0 0 0 0 0 0 0 0 0 0 0 0 0 0 0 0 0 0 0 0 0 0 0 0 0 0 0 0 0 0 0 0 0 0 0 0 0 0 0
0 0 0 0 0 0 0 0 0 0 0 0 0 0 0 0 0 0 0 0 0 0 0 0 0 0 0 0 0 0 0 0 0 0 0 0 0 0 0 0 0 0 0 0
0 0 0 0 0 0 0 0 0 0 0 0 0 0 0 0 0 0 0 0 0 0 0 0 0 0 0 0 0 0 0 0 0 0 0 0 0 0 0 0 0 0 0 0
Height
5839 5834 5828 5821 5815 5807 5798 5787 5776 5763 5749 5734 5717 5702 5687 5671 5656 5641 5626 5612 5597 5583 5569 5557 5545 5533 5521 5509 5496 5482 5468 5455 5442 5430 5418 5406 5395 5385 5376 5368 5362 5357 5354 5353
5835 5830 5825 5817 5809 5800 5791 5780 5769 5756 5742 5726 5710 5695 5680 5664 5649 5635 5621 5606 5591 5577 5565 5553 5540 5528 5516 5503 5490 5475 5461 5448 5435 5423 5412 5401 5389 5378 5368 5359 5352 5346 5343 5341
5829 5824 5819 5811 5802 5793 5785 5774 5762 5748 5735 5718 5704 5689 5674 5658 5643 5629 5614 5599 5585 5572 5560 5548 5536 5523 5511 5498 5484 5469 5455 5442 5430 5418 5406 5394 5382 5371 5360 5350 5342 5336 5332 5329
5823 5818 5811 5807 5797 5787 5778 5767 5754 5741 5727 5712 5697 5682 5667 5652 5637 5623 5609 5594 5581 5569 5556 5544 5531 5518 5505 5492 5478 5463 5449 5436 5424 5412 5400 5387 5375 5363 5351 5340 5332 5325 5321 5318
5817 5811 5806 5800 5790 5780 5771 5761 5748 5734 5720 5705 5690 5677 5662 5647 5631 5618 5604 5589 5577 5565 5553 5540 5527 5514 5501 5487 5473 5458 5444 5432 5420 5407 5394 5381 5367 5354 5341 5330 5320 5313 5309 5306
5813 5806 5799 5794 5784 5773 5764 5753 5741 5728 5714 5699 5685 5672 5657 5641 5626 5612 5598 5585 5573 5561 5549 5536 5524 5511 5498 5484 5469 5454 5440 5427 5414 5401 5387 5373 5358 5343 5329 5316 5306 5300 5297 5295
5808 5801 5795 5787 5776 5767 5758 5749 5735 5721 5707 5693 5680 5665 5650 5635 5621 5607 5593 5581 5569 5557 5546 5534 5521 5508 5495 5480 5465 5451 5436 5423 5409 5395 5380 5365 5349 5332 5315 5301 5291 5286 5284 5284
5802 5794 5789 5780 5771 5763 5754 5741 5729 5715 5701 5688 5673 5658 5644 5630 5616 5602 5589 5578 5566 5555 5543 5531 5519 5506 5492 5478 5463 5448 5434 5420 5406 5390 5375 5359 5342 5322 5303 5288 5278 5274 5273 5273
5799 5793 5784 5775 5767 5758 5747 5736 5723 5710 5696 5683 5668 5654 5640 5626 5613 5600 5587 5576 5565 5553 5541 5529 5517 5504 5491 5477 5462 5448 5433 5419 5404 5387 5371 5354 5336 5316 5296 5280 5270 5266 5264 5265
5793 5786 5779 5770 5761 5752 5741 5731 5718 5704 5691 5677 5664 5650 5636 5623 5610 5597 5585 5575 5564 5552 5540 5528 5516 5503 5490 5476 5461 5447 5434 5419 5403 5387 5371 5353 5334 5314 5294 5277 5267 5262 5260 5260
5788 5781 5773 5765 5756 5746 5736 5725 5712 5699 5686 5673 5659 5646 5633 5620 5607 5594 5583 5573 5563 5551 5540 5528 5516 5503 5490 5476 5462 5449 5435 5421 5406 5390 5373 5355 5336 5316 5296 5279 5267 5261 5258 5257
5782 5775 5767 5759 5750 5741 5731 5719 5707 5694 5681 5669 5655 5642 5629 5617 5604 5592 5582 5572 5562 5551 5539 5528 5516 5503 5490 5477 5463 5451 5438 5424 5409 5393 5377 5359 5341 5322 5303 5285 5272 5263 5259 5256
5775 5768 5761 5753 5745 5735 5725 5714 5702 5689 5677 5665 5651 5638 5626 5614 5602 5591 5581 5572 5562 5551 5540 5528 5516 5504 5491 5478 5465 5453 5440 5426 5411 5396 5380 5363 5348 5331 5314 5297 5281 5269 5262 5258
5769 5762 5755 5747 5739 5730 5719 5708 5696 5684 5672 5661 5648 5635 5623 5612 5600 5589 5580 5571 5561 5551 5540 5528 5517 5505 5493 5481 5469 5456 5443 5429 5415 5399 5384 5368 5354 5339 5324 5308 5293 5280 5270 5262
5762 5756 5749 5741 5733 5724 5714 5703 5691 5680 5668 5657 5644 5633 5621 5609 5598 5588 5579 5570 5561 5551 5540 5529 5518 5507 5495 5484 5472 5460 5447 5433 5419 5404 5390 5376 5362 5348 5334 5320 5306 5293 5281 5271
5756 5749 5743 5735 5727 5718 5709 5698 5686 5675 5664 5653 5641 5630 5619 5607 5597 5587 5579 5570 5561 5552 5542 5531 5520 5509 5498 5487 5475 5463 5451 5437 5424 5411 5398 5385 5371 5358 5344 5331 5319 5307 5295 5284
5750 5743 5737 5730 5721 5713 5703 5692 5681 5670 5659 5649 5638 5627 5616 5605 5595 5586 5578 5570 5562 5553 5543 5532 5521 5511 5501 5490 5479 5468 5455 5443 5430 5418 5406 5394 5381 5367 5354 5342 5330 5319 5308 5298
5743 5737 5731 5724 5716 5707 5697 5687 5676 5665 5655 5645 5635 5624 5613 5602 5592 5583 5575 5568 5560 5552 5543 5533 5522 5513 5503 5493 5483 5471 5460 5448 5436 5425 5414 5402 5390 5377 5365 5353 5341 5330 5320 5310
5736 5731 5724 5717 5709 5701 5691 5681 5671 5661 5651 5642 5632 5622 5611 5601 5591 5582 5574 5566 5559 5551 5542 5533 5524 5515 5506 5496 5486 5475 5465 5454 5443 5432 5422 5411 5399 5388 5376 5364 5353 5342 5331 5321
5729 5724 5717 5710 5702 5694 5685 5676 5666 5656 5647 5638 5628 5619 5609 5600 5590 5582 5574 5567 5560 5552 5544 5535 5526 5517 5508 5499 5490 5479 5470 5460 5450 5440 5430 5419 5408 5397 5386 5375 5364 5354 5343 5333
5722 5716 5710 5703 5696 5688 5679 5670 5661 5652 5643 5634 5625 5615 5606 5597 5588 5580 5573 5566 5559 5552 5544 5536 5528 5519 5511 5502 5493 5483 5474 5465 5456 5447 5437 5427 5417 5407 5396 5386 5376 5366 5355 5346
5715 5709 5703 5696 5689 5681 5673 5664 5655 5647 5638 5630 5621 5612 5603 5595 5586 5578 5571 5564 5557 5551 5544 5537 5529 5521 5513 5504 5495 5487 5479 5470 5462 5453 5444 5434 5425 5415 5405 5395 5386 5376 5367 5357
5707 5702 5696 5689 5682 5675 5667 5658 5650 5641 5633 5626 5618 5609 5601 5593 5586 5578 5571 5564 5557 5550 5544 5538 5531 5523 5515 5507 5498 5490 5482 5475 5467 5459 5450 5441 5432 5423 5414 5404 5395 5386 5377 5368
5699 5694 5688 5681 5675 5668 5660 5652 5644 5636 5628 5621 5614 5606 5598 5590 5583 5575 5568 5562 5555 5549 5544 5538 5532 5524 5517 5509 5501 5493 5486 5478 5471 5463 5455 5447 5438 5430 5421 5413 5404 5395 5386 5377
5691 5686 5680 5674 5667 5661 5654 5646 5638 5630 5623 5616 5609 5602 5594 5587 5580 5573 5566 5560 5554 5548 5543 5537 5532 5525 5518 5511 5504 5497 5489 5482 5474 5467 5460 5452 5444 5436 5428 5420 5411 5403 5395 5386
5682 5677 5672 5666 5660 5654 5647 5639 5631 5624 5618 5611 5605 5598 5591 5584 5577 5571 5565 5558 5552 5546 5542 5537 5531 5525 5519 5513 5506 5499 5492 5485 5478 5470 5463 5456 5449 5441 5434 5426 5419 5411 5403 5395
5673 5669 5663 5658 5652 5646 5639 5632 5625 5618 5612 5606 5600 5593 5587 5580 5574 5568 5562 5556 5550 5545 5540 5535 5530 5525 5519 5514 5508 5501 5495 5488 5481 5474 5467 5460 5453 5446 5439 5432 5425 5417 5410 5402
Wind_Speed
27 28 31 36 40 44 48 54 60 67 73 74 74 73 74 73 70 68 67 66 65 60 56 54 53 52 52 54 56 58 58 57 53 51 51 50 48 45 41 37 33 30 30 33
26 29 32 36 41 46 50 56 62 69 74 75 73 73 73 71 69 67 66 65 61 56 53 53 52 52 53 55 58 60 59 55 51 50 50 51 51 48 44 39 34 30 28 29
31 34 35 38 44 48 52 58 65 71 74 75 72 72 72 70 68 66 65 63 57 53 52 52 53 53 54 57 60 61 59 54 51 51 52 53 53 52 48 42 36 31 27 26
35 37 39 41 45 50 55 60 67 72 75 74 72 72 70 69 66 64 64 60 54 51 52 53 53 54 55 60 62 62 58 54 53 53 54 55 55 55 53 47 38 31 27 25
37 39 40 43 48 52 57 62 68 73 74 72 71 71 68 67 65 64 62 56 52 52 53 53 54 54 57 61 63 62 58 54 54 55 56 56 57 58 56 51 41 32 26 23
37 40 43 45 49 54 59 64 69 73 73 71 70 69 68 67 64 63 59 53 52 53 54 54 54 55 58 62 63 61 57 56 57 58 58 58 60 61 59 52 40 30 24 21
39 41 43 47 51 56 60 65 70 72 71 69 69 68 66 64 63 61 56 52 52 53 54 54 55 56 59 62 62 60 58 57 59 60 60 61 64 64 61 50 36 27 21 18
42 44 46 49 52 55 59 64 69 70 69 68 67 66 64 63 61 58 53 51 52 53 54 55 55 56 59 61 60 59 58 58 60 62 63 64 67 66 60 45 31 22 18 16
41 43 45 48 51 56 60 64 68 69 67 66 66 64 62 61 59 56 51 50 51 53 54 55 55 57 59 60 59 57 58 59 61 63 64 67 70 68 60 44 28 19 15 13
41 43 45 48 52 56 59 64 67 67 66 65 64 62 60 59 57 53 49 48 50 52 53 54 55 57 58 58 57 57 58 59 61 63 64 67 71 71 62 47 30 19 13 11
40 42 44 47 52 56 59 63 66 66 64 63 62 60 59 57 55 51 47 47 49 51 52 53 54 56 57 57 56 56 57 59 61 62 63 66 69 73 66 54 38 24 14 10
41 42 44 48 52 55 59 63 66 65 63 62 60 58 57 56 53 49 45 45 48 50 51 52 53 55 56 56 57 56 57 58 60 62 62 65 68 71 70 61 48 32 21 13
40 41 44 48 52 55 58 62 65 64 61 60 59 57 56 54 52 47 43 43 46 49 50 51 51 53 55 55 56 56 57 58 61 62 63 63 66 68 69 67 58 44 30 20
40 41 44 48 52 55 58 62 64 63 60 59 58 56 55 53 50 46 42 41 44 47 49 50 50 52 53 54 55 56 57 58 61 62 63 63 64 65 67 68 65 57 45 31
40 41 44 48 51 54 57 61 63 61 59 58 57 55 54 52 49 45 41 40 43 46 48 49 49 50 51 52 54 55 56 57 60 61 62 62 63 63 64 65 65 63 58 48
40 42 44 48 50 53 57 60 62 60 57 56 55 54 52 51 48 44 40 39 41 44 46 48 48 49 49 51 53 54 55 57 59 60 60 61 62 62 62 62 62 62 61 58
41 42 44 47 49 52 56 59 60 58 56 55 54 53 51 50 48 44 40 38 39 42 45 47 47 47 47 49 51 52 54 55 57 58 58 59 60 61 61 60 60 59 59 58
41 42 43 45 48 52 55 57 58 56 54 53 53 51 50 49 47 44 40 38 39 41 44 46 46 45 46 47 48 50 53 54 55 55 56 58 59 60 60 60 60 58 57 56
40 41 42 45 48 51 54 56 56 54 52 51 51 50 49 47 46 43 40 38 38 40 42 44 44 43 44 44 45 48 50 52 53 53 54 55 56 57 59 59 60 59 58 56
40 41 42 45 48 50 53 55 54 52 50 50 49 49 47 46 45 42 39 36 36 37 39 41 42 42 42 42 43 45 47 48 50 51 52 53 54 55 56 58 59 59 59 57
40 40 42 45 47 49 52 53 53 50 49 48 48 47 46 45 44 42 39 36 35 35 37 39 40 40 40 40 41 42 43 45 47 48 50 51 52 52 53 55 56 58 58 58
40 40 42 45 47 49 51 52 51 49 47 47 46 46 45 44 43 41 38 35 34 34 35 36 37 38 39 39 39 40 41 42 43 45 47 49 50 50 51 52 53 55 56 57
41 41 42 44 46 48 50 51 50 48 45 45 45 44 43 42 41 40 37 35 32 32 32 34 35 36 37 38 38 38 38 39 40 42 44 46 48 49 49 49 50 51 52 54
41 41 42 43 45 47 50 50 50 47 44 43 43 42 42 40 40 39 37 34 31 30 30 31 32 33 35 36 37 37 37 37 37 38 41 43 45 47 48 48 48 48 49 50
41 41 42 42 44 47 50 50 49 46 42 41 41 41 40 39 38 38 36 33 30 29 28 29 30 31 32 34 36 36 37 37 37 37 38 39 41 43 45 46 47 47 47 48
41 41 41 42 45 48 50 50 48 45 41 40 39 39 38 37 36 36 35 33 30 28 27 27 27 28 30 32 33 35 36 37 37 37 37 37 38 39 41 42 44 44 45 46
42 42 42 44 47 50 51 50 47 44 40 38 38 38 37 36 34 34 34 32 30 27 25 25 25 26 27 29 31 33 34 35 36 37 37 36 36 37 37 38 39 41 42 43
Wind_Direction
331 332 330 327 327 330 334 336 338 339 339 340 340 340 340 341 340 339 338 336 336 339 342 343 343 342 342 342 342 341 340 339 339 340 342 342 341 336 329 322 313 300 283 267
332 330 331 327 330 335 337 338 338 339 340 341 341 341 341 341 341 340 338 337 339 343 345 345 344 344 344 345 345 344 343 343 343 343 344 344 343 340 335 327 318 307 292 274
335 335 336 334 336 336 338 339 339 340 340 341 341 341 342 342 341 340 339 340 343 346 346 346 345 346 346 347 347 346 346 346 346 345 344 344 343 342 338 331 321 311 298 282
337 338 340 337 336 338 340 340 340 340 340 342 342 342 343 342 341 341 341 343 346 348 347 346 346 347 348 348 348 347 347 347 347 346 344 343 342 342 339 334 324 312 300 286
337 337 338 337 339 339 340 340 340 340 341 342 342 342 343 343 342 342 343 346 348 349 348 347 348 348 348 348 348 349 349 348 347 346 345 343 341 340 338 333 325 313 300 286
336 336 337 339 338 339 339 340 340 340 341 342 342 343 345 344 344 344 346 349 350 350 349 349 349 349 349 349 350 351 351 350 350 348 347 345 343 340 338 333 324 312 299 284
336 336 337 338 338 338 339 339 339 341 342 342 343 344 345 345 345 346 349 351 351 351 350 351 351 351 351 351 352 353 353 353 352 351 350 349 346 343 340 335 325 311 298 283
337 337 338 337 336 337 337 339 340 341 342 342 343 345 346 346 346 348 351 353 353 352 352 352 353 353 353 353 354 355 356 356 355 354 353 352 351 349 347 342 331 314 299 285
335 334 334 334 334 336 337 339 340 341 342 343 344 346 347 347 348 350 353 355 354 354 354 354 354 355 355 356 357 358 358 358 358 358 357 357 357 357 356 352 343 326 306 287
332 332 333 333 334 335 337 339 340 341 342 344 345 347 348 348 350 352 355 356 356 356 356 356 356 356 357 359 1 1 1 1 2 2 1 1 2 4 4 3 358 345 323 297
329 329 330 332 334 335 336 339 340 342 343 344 346 348 349 350 351 354 356 357 358 358 358 358 358 358 0 3 4 5 5 5 5 5 6 6 7 9 10 11 9 3 349 322
326 326 328 331 333 334 336 339 341 342 343 345 347 349 350 351 353 355 356 358 359 360 -0 360 360 1 3 5 7 7 7 8 9 10 10 12 13 14 15 16 16 13 6 353
322 324 326 329 331 333 336 338 341 342 343 345 348 350 351 352 354 355 356 358 0 1 2 2 2 4 6 8 9 9 9 11 12 13 14 15 17 18 19 21 22 21 18 11
319 322 324 328 331 333 335 338 340 342 343 345 348 350 352 353 354 356 356 358 0 2 4 4 5 6 7 9 10 10 11 13 15 16 17 18 19 21 22 24 26 27 27 24
317 320 323 327 329 332 335 338 340 342 343 345 348 351 352 353 355 356 356 356 360 3 5 6 7 8 9 10 11 11 12 15 17 18 19 20 22 23 24 26 28 30 31 32
315 318 321 325 328 331 334 337 340 341 342 345 348 351 352 354 355 355 355 356 359 3 5 7 8 9 10 12 12 12 14 17 19 20 21 22 24 25 27 28 29 31 32 34
313 316 320 324 327 330 333 336 339 341 342 345 348 351 352 354 354 354 354 355 358 1 5 7 9 9 10 12 13 14 15 18 20 21 22 23 25 27 28 29 30 31 33 34
312 315 319 323 326 330 333 336 338 340 342 344 347 350 352 353 354 354 353 354 356 0 5 8 9 8 9 12 13 15 16 18 21 22 23 24 26 28 29 30 31 32 33 33
311 314 318 323 326 329 332 335 338 339 341 344 347 349 351 353 354 353 352 352 355 359 3 6 8 8 9 10 12 15 17 18 21 22 23 25 27 29 30 32 32 33 33 34
311 314 317 321 325 328 331 334 337 339 341 343 345 348 350 352 353 353 352 351 353 357 1 5 7 8 9 9 12 15 17 19 20 22 23 25 26 29 31 33 33 34 34 34
309 312 316 320 324 327 330 333 336 338 339 342 344 347 349 351 353 353 352 351 353 356 1 4 6 8 9 10 12 15 17 19 20 21 23 24 25 27 30 32 33 34 35 35
308 311 315 319 323 325 329 332 335 336 338 340 342 345 348 350 352 351 351 351 352 356 360 3 6 9 11 12 13 16 17 19 20 21 22 24 25 25 27 30 32 33 34 35
307 310 314 318 321 324 328 331 333 334 336 338 341 344 346 348 350 350 350 351 351 355 358 1 5 9 12 14 15 16 17 18 19 20 22 23 24 24 25 27 29 31 33 34
306 309 313 316 320 323 327 330 331 332 334 336 339 342 344 346 348 350 350 350 350 354 357 360 3 8 12 15 17 17 17 16 17 18 20 21 23 23 24 24 26 28 30 31
305 308 312 315 319 322 325 327 328 329 331 333 336 340 342 343 346 348 349 349 349 351 354 357 1 5 10 14 17 18 18 17 16 16 16 18 21 22 23 23 24 26 27 28
302 306 309 313 317 321 323 325 325 326 328 330 333 337 339 340 342 345 347 347 348 349 351 354 358 3 6 10 13 17 18 18 18 17 16 16 19 21 22 23 24 24 25 26
299 303 306 310 315 318 321 322 323 323 325 328 331 334 337 337 338 342 345 346 346 346 347 350 353 358 2 5 8 12 15 17 18 18 18 17 18 19 19 20 21 22 23 23